Location: Austin, TX
(30.3000°N, 97.7500°W)
Time: 03:25:37
(UTC-05:00)

Daily predictions for brighter satellites

Satellite Brightness Start Highest point End
(mag) Time Altitude Azimuth Time Altitude Azimuth Time Altitude Azimuth
Okean O Rocket 3.7 04:44:11 10° NE 04:47:40 23° E 04:47:42 23° E
ATLAS 3B R/B 3.5 04:51:33 38° SSE 04:54:03 52° ESE 05:01:02 10° NE
Cosmos 2266 Rocket 4.4 04:53:15 10° N 04:59:38 64° E 05:05:56 10° SSE
ADEOS II 2.6 04:54:34 10° NNE 04:58:42 55° NE 04:58:42 55° NE
Meteor 1-18 Rocket 4.3 05:05:26 77° N 05:05:26 77° N 05:10:56 10° N
Cosmos 1943 3.2 05:12:48 10° NNW 05:18:32 80° ENE 05:24:10 10° SSE
Cosmos 2263 Rocket 3.1 05:21:57 35° NNW 05:21:57 35° NNW 05:25:51 10° N
ASTRO E2 4.0 05:23:57 34° SE 05:23:57 34° SE 05:26:55 10° E
Atlas Centaur 2 2.1 05:22:30 72° W 05:23:11 90° S 05:28:25 10° E
OAO 1 Rocket 4.4 05:25:30 71° SSW 05:25:53 75° SSE 05:31:15 10° ENE
PSLV R/B 4.0 05:22:15 10° N 05:25:27 51° N 05:25:27 51° N
CZ-4B R/B 4.1 05:24:22 10° N 05:26:42 33° N 05:26:42 33° N
PAYLOAD B 4.2 05:25:45 10° NNE 05:31:16 78° ESE 05:35:23 18° S
Cosmos 1544 Rocket 4.3 05:27:46 10° N 05:32:00 52° E 05:36:15 10° SSE
SEDSat Delta rocket 3.9 05:33:15 48° SW 05:33:37 49° SSW 05:39:00 10° SE
Skynet4D Del rocket 3.9 05:36:20 46° SW 05:37:40 58° S 05:43:05 10° E
Cosmos 1455 Rocket 3.6 05:35:29 10° N 05:39:44 57° E 05:43:58 10° SSE
NOSS 3-2 (A) 4.4 05:35:58 10° S 05:41:23 42° ESE 05:47:11 10° NE
Meteor 1-4 Rocket 4.3 05:39:18 10° NNE 05:42:26 32° E 05:45:33 10° SE
Meteor 1-13 Rocket 4.4 05:37:47 10° S 05:43:43 78° E 05:49:39 10° N
ASC 2 Rocket 3.7 05:45:43 35° S 05:45:51 35° S 05:49:32 10° ESE
Meteor 1-12 Rocket 4.3 05:40:46 10° N 05:46:47 81° W 05:52:46 10° S
RUBIN 8/PSLV 4.4 05:45:06 10° N 05:49:31 79° WNW 05:52:01 25° SSW
Cosmos 1536 Rocket 3.4 05:49:27 15° S 05:53:00 85° W 05:57:22 10° N
Cosmos 1844 4.5 05:50:54 10° S 05:56:16 52° ESE 06:01:44 10° NNE
Intercosmos 25 Rocket 3.8 05:56:00 35° SW 05:57:16 45° W 06:00:45 10° N
Meteor 2-4 Rocket 3.7 05:58:28 10° S 06:03:56 85° E 06:09:39 10° N
CZ-3 R/B 2.8 05:49:53 23° WSW 06:04:07 73° S 06:10:14 10° E
GPS 2-05 Rocket1 2.4 06:03:43 61° W 06:04:10 82° SSW 06:07:13 10° ESE
CZ-4B R/B 3.2 05:59:34 10° N 06:04:44 56° WNW 06:09:57 10° SSW
USA 238 DEB 3.8 06:01:21 21° SW 06:06:01 59° WNW 06:12:55 10° NNE
USA 238 3.8 06:01:24 21° SW 06:06:09 59° WNW 06:13:02 10° NNE
GOES 2 Rocket 3.2 06:06:07 33° WSW 06:07:37 51° S 06:11:55 10° ESE
Meteor 1-19 Rocket 4.3 06:03:22 10° SSW 06:09:09 58° W 06:14:54 10° N
Cosmos 1553 Rocket 3.9 06:04:19 10° S 06:10:30 85° W 06:16:37 10° N
Cosmos 332 Rocket 3.8 06:10:49 10° NNW 06:15:31 57° WSW 06:20:11 10° S
Cosmos 371 Rocket 3.2 06:15:26 10° NNW 06:20:14 62° WSW 06:24:59 10° S
CZ-2C R/B 3.7 06:18:16 10° SSE 06:22:55 86° WSW 06:27:40 10° NNW
Cosmos 1025 Rocket 3.5 06:19:17 10° S 06:23:28 62° E 06:27:42 10° NNE
Okean O Rocket 2.8 06:20:32 10° NNW 06:23:52 22° WNW 06:25:09 19° W
USA 116 3.5 06:20:36 10° SSE 06:23:56 69° ENE 06:27:04 10° N
SL-08 R/B 4.4 06:21:13 10° N 06:27:21 86° W 06:33:30 10° S
Meteor 2-9 Rocket 4.2 06:23:15 10° N 06:28:44 90° E 06:34:21 10° S
S3M 4.0 06:24:10 10° SSW 06:30:18 63° W 06:36:35 10° N
EO 1 Del DPAF 3.5 06:28:55 10° SSE 06:32:43 74° ENE 06:36:31 10° N
Okean 2 3.5 06:30:02 10° S 06:34:05 77° E 06:38:11 10° N
Cosmos 1975 4.5 06:33:06 10° NW 06:35:25 15° W 06:36:03 14° W
COSMOS 2406 4.1 06:31:39 10° N 06:37:19 56° ENE 06:42:56 10° SE
Cosmos 2278 Rocket 2.9 06:32:30 10° S 06:38:01 59° ESE 06:43:36 10° NNE
Cosmos 389 Rocket 4.3 06:35:18 10° NNE 06:38:31 35° E 06:41:43 10° SSE
ADEOS II 4.0 06:38:06 10° NW 06:38:50 10° WNW 06:39:34 10° WNW
Landsat 4 4.3 06:36:26 10° SSW 06:39:57 36° W 06:43:29 10° NNW
Delta 2 Rocket 4.5 06:36:22 13° W 06:41:15 55° N 06:46:57 10° ENE
COSMO-SKYMED 1 3.4 06:37:32 10° SSE 06:41:46 56° ENE 06:46:01 10° N
NOSS 3-2 (C) 3.4 06:37:06 10° SSW 06:42:55 82° WNW 06:49:15 10° NNE
Cosmos 1515 3.6 06:39:20 10° S 06:43:08 85° W 06:46:58 10° N
Tiangong 1 2.1 06:41:07 10° NW 06:43:35 34° NNE 06:46:04 10° E
CZ-3A R/B 3.6 06:41:18 11° WSW 06:44:52 56° S 07:02:00 10° ESE
ATLAS 3B R/B 3.7 06:38:53 11° WSW 06:44:58 29° NW 06:51:04 10° N
Meteor 1-31 Rocket 4.0 06:42:35 10° NNW 06:45:37 22° WNW 06:48:38 10° SW
Abrixas 2.4 06:44:24 10° SW 06:46:49 58° SE 06:49:13 10° NE
Cosmos 1666 3.8 06:43:53 10° NW 06:46:55 23° W 06:49:57 10° SW
Cosmos 2292 Rocket 4.5 06:43:25 10° N 06:48:36 87° E 06:55:34 10° S
DELTA 2 R/B (1) 4.4 06:43:57 10° NW 06:49:20 48° NNE 06:54:43 10° E
Cosmos 1814 Rocket 4.1 06:45:54 10° NNW 06:50:57 56° WSW 06:56:01 10° S
Radarsat Rocket 4.2 06:45:30 10° NNE 06:51:35 87° WNW 06:58:23 10° SSW
Cosmos 1503 Rocket 4.0 06:46:20 10° SSW 06:51:37 69° WNW 06:56:59 10° N
Cosmos 1354 Rocket 4.0 06:46:50 10° SSW 06:52:06 69° WNW 06:57:25 10° N
ATLAS CENTAUR R/B 1.3 06:49:18 10° SW 06:53:15 58° WNW 06:57:00 10° NNE
PAYLOAD A 4.0 06:49:13 10° NNE 06:54:01 79° ESE 06:58:42 10° S
Cosmos 1844 Rocket 3.5 06:50:54 10° SW 06:55:52 31° WNW 07:00:52 10° N
Cosmos 1743 4.5 06:55:27 10° WNW 06:57:22 13° W 06:59:16 10° WSW
Meteor 1-15 Rocket 4.2 06:52:23 10° N 06:57:59 82° W 07:03:32 10° S
CENTAUR R/B 3.8 06:54:45 10° S 07:00:06 42° ESE 07:06:01 10° NE
